Weather History for Ajaccio, France

Change the Weather History Date:

Friday, February 22, 2013

  Actual Average Record
Temperature  
Mean Temperature 45 °F -  
Max Temperature 52 °F 57 °F 62 °F (1998)
Min Temperature 38 °F 39 °F 32 °F (2005)
Degree Days  
Heating Degree Days 20    
Moisture  
Dew Point 41 °F    
Average Humidity 84    
Maximum Humidity 93    
Minimum Humidity 67    
Precipitation  
Precipitation 0.16 in 0.08 in - ()
Sea Level Pressure  
Sea Level Pressure 29.54 in    
Wind  
Wind Speed 6 mph ()    
Max Wind Speed 12 mph    
Max Gust Speed -    
Visibility 6.4 miles    
Events Rain    
Averages and records for this station are not official NWS values.
T = Trace of Precipitation, MM = Missing Value Source: Averaged Metar Reports

Daily Weather History Graph

Daily Weather History Graph

Search for Another Location

Airport:

Trip Planner

Search our weather history database for the weather conditions in past years. The results will help you decide how hot, cold, wet, or windy it might be!

Date:

Astronomy

Feb. 22, 2013 Rise Set
Actual Time 7:10 AM CET 6:06 PM CET
Civil Twilight 6:42 AM CET 6:34 PM CET
Nautical Twilight 6:09 AM CET 7:07 PM CET
Astronomical Twilight 5:37 AM CET 7:39 PM CET
Moon 3:00 PM CET (2/22) 4:47 AM CET (2/22)
Length of Visible Light 11h 52m
Length of Day
10h 55m
Waxing Gibbous, 88% of the Moon is Illuminated
Feb 22
Waxing Gibbous
Feb 25
Full
Mar 4
Last Quarter
Mar 11
New
Mar 19
First Quarter

Hourly Weather History & Observations

Time (CET) Temp. Windchill Dew Point Humidity Pressure Visibility Wind Dir Wind Speed Gust Speed Precip Events Conditions
12:00 AM 42.8 °F 38.0 °F 39.2 °F 87% 29.65 in 6.2 mi NE 8.1 mph - N/A   Mostly Cloudy
12:30 AM 41.0 °F 35.8 °F 37.4 °F 87% 29.65 in 6.2 mi NE 8.1 mph - N/A   Mostly Cloudy
1:00 AM 42 °F - 38 °F 83% 29.66 in 7 mi NE 5.8 mph - -   Clear
1:00 AM 41.0 °F 37.1 °F 39.2 °F 93% 29.65 in 6.2 mi NE 5.8 mph - N/A   Mostly Cloudy
1:30 AM 42.8 °F 38.0 °F 39.2 °F 87% 29.65 in 6.2 mi NNE 8.1 mph - N/A   Mostly Cloudy
2:00 AM 41.0 °F 35.2 °F 37.4 °F 87% 29.65 in 6.2 mi NNE 9.2 mph - N/A   Unknown
2:30 AM 41.0 °F 35.8 °F 37.4 °F 87% 29.62 in 6.2 mi NE 8.1 mph - N/A   Unknown
3:00 AM 41.0 °F 35.8 °F 37.4 °F 87% 29.62 in 6.2 mi NE 8.1 mph - N/A   Unknown
3:30 AM 41.0 °F 35.8 °F 37.4 °F 87% 29.62 in 6.2 mi NNE 8.1 mph - N/A   Unknown
4:00 AM 39.2 °F 33.6 °F 35.6 °F 87% 29.59 in 6.2 mi NE 8.1 mph - N/A   Mostly Cloudy
4:30 AM 39.2 °F 35.0 °F 37.4 °F 93% 29.59 in 6.2 mi ENE 5.8 mph - N/A   Overcast
5:00 AM 39.2 °F 35.0 °F 35.6 °F 87% 29.59 in 6.2 mi NE 5.8 mph - N/A   Overcast
5:30 AM 39.2 °F 35.0 °F 37.4 °F 93% 29.59 in 6.2 mi NE 5.8 mph - N/A   Overcast
6:00 AM 41.0 °F 37.1 °F 35.6 °F 81% 29.56 in 6.2 mi NE 5.8 mph - N/A   Mostly Cloudy
6:30 AM 41.0 °F 37.1 °F 37.4 °F 87% 29.56 in 6.2 mi NE 5.8 mph - N/A   Mostly Cloudy
7:00 AM 41 °F - 37 °F 82% 29.58 in 12 mi NE 6.9 mph - -   Overcast
7:00 AM 41.0 °F 37.1 °F 37.4 °F 87% 29.56 in 6.2 mi NE 5.8 mph - N/A   Mostly Cloudy
7:30 AM 42.8 °F 38.0 °F 37.4 °F 81% 29.56 in 6.2 mi NE 8.1 mph - N/A Rain Light Rain
8:00 AM 42.8 °F 38.6 °F 39.2 °F 87% 29.56 in 6.2 mi NE 6.9 mph - N/A Rain Light Rain
8:30 AM 42.8 °F 37.5 °F 39.2 °F 87% 29.56 in 6.2 mi ENE 9.2 mph - N/A Rain Light Rain
9:00 AM 42.8 °F 38.6 °F 39.2 °F 87% 29.56 in 6.2 mi NE 6.9 mph - N/A Rain Light Rain
9:30 AM 44.6 °F 40.7 °F 41.0 °F 87% 29.53 in 6.2 mi ENE 6.9 mph - N/A Rain Light Rain
10:00 AM 44.6 °F 41.4 °F 41.0 °F 87% 29.53 in 6.2 mi NNE 5.8 mph - N/A Rain Light Rain
10:30 AM 44.6 °F 42.2 °F 41.0 °F 87% 29.53 in 6.2 mi NNW 4.6 mph - N/A Rain Light Rain
11:00 AM 44.6 °F 41.4 °F 42.8 °F 93% 29.53 in 6.2 mi ENE 5.8 mph - N/A Rain Light Rain
11:30 AM 44.6 °F 41.4 °F 42.8 °F 93% 29.53 in 6.2 mi NE 5.8 mph - N/A Rain Light Rain
12:00 PM 46.4 °F 43.5 °F 42.8 °F 87% 29.50 in 6.2 mi NNE 5.8 mph - N/A Rain Light Rain
12:30 PM 48.2 °F - 44.6 °F 87% 29.47 in 6.2 mi NNE 9.2 mph - N/A   Mostly Cloudy
1:00 PM 48 °F - 43 °F 76% 29.49 in 9 mi NNE 8.1 mph - - Rain Light Rain
1:00 PM 48.2 °F - 42.8 °F 82% 29.47 in 6.2 mi NNE 8.1 mph - N/A   Mostly Cloudy
1:30 PM 50.0 °F - 42.8 °F 76% 29.44 in 6.2 mi NNE 8.1 mph - N/A   Mostly Cloudy
2:00 PM 51.8 °F - 42.8 °F 71% 29.44 in 6.2 mi NE 5.8 mph - N/A   Mostly Cloudy
2:30 PM 51.8 °F - 41.0 °F 67% 29.44 in 6.2 mi Variable 1.2 mph - N/A   Mostly Cloudy
3:00 PM 51.8 °F - 42.8 °F 71% 29.44 in 6.2 mi Variable 2.3 mph - N/A   Mostly Cloudy
3:30 PM 50.0 °F - 42.8 °F 76% 29.44 in 6.2 mi SSW 5.8 mph - N/A   Mostly Cloudy
4:00 PM 51.8 °F - 42.8 °F 71% 29.44 in 6.2 mi SW 8.1 mph - N/A   Mostly Cloudy
4:30 PM 50.0 °F - 41.0 °F 71% 29.47 in 6.2 mi SW 11.5 mph - N/A   Mostly Cloudy
5:00 PM 50.0 °F - 42.8 °F 76% 29.47 in 6.2 mi SW 9.2 mph - N/A Rain Light Rain
5:30 PM 50.0 °F - 42.8 °F 76% 29.47 in 6.2 mi SW 5.8 mph - N/A Rain Light Rain
6:00 PM 50.0 °F - 42.8 °F 76% 29.47 in 6.2 mi West 5.8 mph - N/A   Mostly Cloudy
6:30 PM 50.0 °F - 42.8 °F 76% 29.50 in 6.2 mi West 6.9 mph - N/A   Mostly Cloudy
7:00 PM 48 °F - 43 °F 78% 29.52 in 9 mi ENE 5.8 mph - -   Partly Cloudy
7:00 PM 48.2 °F - 42.8 °F 82% 29.50 in 6.2 mi NE 4.6 mph - N/A   Mostly Cloudy
7:30 PM 48.2 °F - 44.6 °F 87% 29.50 in 6.2 mi Variable 2.3 mph - N/A   Mostly Cloudy
8:00 PM 48.2 °F - 44.6 °F 87% 29.50 in 6.2 mi Variable 2.3 mph - N/A   Mostly Cloudy
8:30 PM 46.4 °F 44.3 °F 42.8 °F 87% 29.53 in 6.2 mi NE 4.6 mph - N/A   Mostly Cloudy
9:00 PM 46.4 °F 44.3 °F 42.8 °F 87% 29.53 in 6.2 mi ENE 4.6 mph - N/A   Mostly Cloudy
9:30 PM 44.6 °F 41.4 °F 42.8 °F 93% 29.53 in 6.2 mi NE 5.8 mph - N/A   Mostly Cloudy
10:00 PM 44.6 °F 42.2 °F 42.8 °F 93% 29.53 in 6.2 mi NE 4.6 mph - N/A   Mostly Cloudy
10:30 PM 44.6 °F 40.7 °F 41.0 °F 87% 29.53 in 6.2 mi NE 6.9 mph - N/A   Scattered Clouds
11:00 PM 44.6 °F 42.2 °F 41.0 °F 87% 29.56 in 6.2 mi NE 4.6 mph - N/A   Scattered Clouds
11:30 PM 42.8 °F 40.1 °F 41.0 °F 93% 29.56 in 6.2 mi NE 4.6 mph - N/A   Mostly Cloudy